sat.trackr.live / text

‹ back to catalog

STARLINK-37157

NORAD 68394 · 2026-063Q

PAYLOAD ACTIVE UNKNOWN

§ Identity

Operator
Country
US
Launch date
2026-03-26
Launch site
AFWTR
Launch vehicle
Mass (kg)
RCS (m²)

Purposes: comms

External: N2YO · Heavens-Above · Gunter

§ Orbital elements

Epoch: 2026-09-20T04:09:33.710112Z

Period
93.91 min
Inclination
97.2829°
Eccentricity
0.0001922
Mean motion
15.33461704 rev/d
Perigee alt
464.2 km
Apogee alt
466.8 km
Semi-major
6,843.6 km
B*
4.8251e-4
RAAN
44.1188°
Arg perigee
186.5054°
Mean anomaly
173.6164°
Rev number
2,770

§ Raw data

STARLINK-371571 68394U 26063Q   26263.17330683  .00015543  00000+0  48251-3 0  99972 68394  97.2829  44.1188 0001922 186.5054 173.6164 15.33461704 27706

JSON: /api/v1/satellites/68394 · /tle

For live sub-satellite position, see the globe view (requires WebGL).

§ Visibility from observer

Set your observer location to see the next 7 days of passes ≥ 10°. The values pass through the URL so the page stays shareable.

No JS? Fill the form by hand. The geolocation button needs JavaScript.